Preview of NWS' New Version of Forecast
This preview is not operational and should not be used for support decisions.

Regional Weather Roundup (RWR)

Issued by National Weather Service (NWS)

                            
000
ASUS46 KSEW 212110
RWRWA 

WASHINGTON REGIONAL WEATHER ROUNDUP
NATIONAL WEATHER SERVICE SEATTLE WA
200 PM PDT WED AUG 21 2019

NOTE:"FAIR" INDICATES FEW OR NO CLOUDS BELOW 12,000 FEET WITH NO 
SIGNIFICANT WEATHER AND/OR OBSTRUCTIONS TO VISIBILITY.

WAZ507-509-555>559-212200-
SEATTLE, TACOMA, EVERETT, AND VICINITY
  
CITY           SKY/WX    TMP DP  RH WIND       PRES   REMARKS
EVERETT        CLOUDY    67  56  67 S9        29.99S                  
BOEING FIELD   CLOUDY    66  56  70 S9        29.99R                  
RENTON         CLOUDY    67  58  72 SW8       29.98S                  
SEATAC AIRPORT LGT RAIN  64  57  78 S7        30.00S                  
JBLM-MCCHORD   CLOUDY    66  61  82 VRB2      29.99S                  
PUYALLUP       CLOUDY    66  63  88 CALM      30.00S                  
BREMERTON      CLOUDY    65  60  84 S10G18    29.98F                  
JBLM-FT LEWIS  CLOUDY    66  66 100 E5        29.98F                  
TACOMA NARROWS CLOUDY    62  61  96 CALM      29.98F FOG              
$$
 
WAZ001-503-506-510-514-515-212200-
NORTH INTERIOR
  
CITY           SKY/WX    TMP DP  RH WIND       PRES   REMARKS
BELLINGHAM     LGT RAIN  63  60  90 S6        29.97R FOG              
FRIDAY HARBOR  LGT RAIN  60  58  92 SE6       29.98S FOG              
EASTSOUND      LGT RAIN  63  61  94 S9G15     29.95F                  
PORT ANGELES   CLOUDY    61  59  93 CALM      29.98S FOG              
EDIZ HOOK      CLOUDY    59  58  97 CALM      29.98S FOG              
PORT TOWNSEND  PTSUNNY   66  59  77 W3        29.96S                  
NAS WHIDBEY    CLOUDY    61  55  81 W9        30.01R                  
ARLINGTON      CLOUDY    69  58  67 S7        29.97S                  
BURLINGTON     CLOUDY    68  63  83 S7        29.98S                  
$$
 
WAZ020-022-039-040-504-511-512-212200-
SOUTHWEST INTERIOR
  
CITY           SKY/WX    TMP DP  RH WIND       PRES   REMARKS
SHELTON        LGT RAIN  65  62  90 W3        29.96S FOG              
OLYMPIA        CLOUDY    67  60  78 S9        29.97F                  
CHEHALIS       CLOUDY    70  61  73 S12       29.98F                  
KELSO          CLOUDY    72  59  63 S10G16    29.99F                  
VANCOUVER      CLOUDY    69  57  65 VRB6      30.01S                  
SCAPPOOSE, OR  CLOUDY    71  57  61 SE6       29.99F                  
PORTLAND, OR   CLOUDY    70  58  65 S8        30.01S                  
$$
 
WAZ021-516-517-212200-
WASHINGTON COAST
  
CITY           SKY/WX    TMP DP  RH WIND       PRES   REMARKS
FORKS          CLOUDY    63  59  87 N6        29.99R                  
HOQUIAM        CLOUDY    65  65 100 CALM      29.97S                  
ASTORIA, OR    LGT RAIN  63  61  93 SW14G30   29.98R FOG              
$$
 
WAZ019-023-024-040-567>569-212200-
CASCADE MOUNTAINS AND COLUMBIA GORGE
  
CITY           SKY/WX    TMP DP  RH WIND       PRES   REMARKS
STAMPEDE PASS  NOT AVBL                                               
TROUTDALE, OR  CLOUDY    66  61  84 NE7       30.02S                  
HOOD RIVER, OR CLOUDY    68  55  64 W14G23    29.96F                  
THE DALLES, OR CLOUDY    76  56  49 W21       29.92S                  
$$

WAZ026-027-041>044-520-521-212200-
EAST SLOPES
  
CITY           SKY/WX    TMP DP  RH WIND       PRES   REMARKS
OMAK           CLOUDY    85  39  19 SW9       29.80F                  
WENATCHEE      PTSUNNY   82  50  32 NW14      29.85F                  
ELLENSBURG     CLOUDY    78  51  38 NW15      29.90F                  
YAKIMA         CLOUDY    81  48  31 SE7       29.87F                  
SUNNYSIDE ARPT CLOUDY    79  56  44 W12G23    29.87                   
YAKIMA TC      FAIR      81  44  27 S7        29.87F                  
$$

WAZ028-034-035-212200-
COLUMBIA BASIN
  
CITY           SKY/WX    TMP DP  RH WIND       PRES   REMARKS
EPHRATA        CLOUDY    87  35  15 SW13      29.84F                  
MOSES LAKE     CLOUDY    88  35  15 SW14      29.84F                  
PASCO          PTSUNNY   89  41  18 SW13      29.84F                  
RICHLAND ARPT  MOCLDY    89  43  20 W8        29.84                   
HERMISTON, OR  PTSUNNY   87  46  24 W17G26    29.86F                  
$$

WAZ036>038-212200-
NORTHEAST WASHINGTON
  
CITY           SKY/WX    TMP DP  RH WIND       PRES   REMARKS
SPOKANE GEIGER MOSUNNY   86  43  22 SW9G22    29.89F                  
SPOKANE FELTS  SUNNY     89  43  20 SW10      29.87F                  
FAIRCHILD AFB  SUNNY     86  40  19 SW13      29.90F                  
COEURDALENE,ID SUNNY     86  49  27 VRB3      29.90F                  
DEER PARK      SUNNY     87  45  23 SW8G21    29.88F                  
$$

WAZ029>033-212200-
SOUTHEAST WASHINGTON
  
CITY           SKY/WX    TMP DP  RH WIND       PRES   REMARKS
PULLMAN        SUNNY     85  43  22 SW14G20   29.94F                  
LEWISTON, ID   SUNNY     92  44  19 VRB5      29.84F                  
WALLA WALLA    PTSUNNY   88  43  20 SW14G21   29.88F                  
PENDLETON, OR  PTSUNNY   88  35  15 W21G28    29.89F                  
$$